TimeEDT,TemperatureF,Dew PointF,Humidity,Sea Level PressureIn,VisibilityMPH,Wind Direction,Wind SpeedMPH,Gust SpeedMPH,PrecipitationIn,Events,Conditions,WindDirDegrees,DateUTC
12:53 AM,75.0,71.1,87,29.94,10.0,NNE,5.8,-,N/A,,Clear,30,2013-10-09 04:53:00
1:53 AM,73.9,71.1,91,29.95,10.0,NE,5.8,-,N/A,,Clear,50,2013-10-09 05:53:00
2:53 AM,73.9,70.0,87,29.94,10.0,NNE,9.2,-,N/A,,Clear,30,2013-10-09 06:53:00
3:42 AM,73.4,69.8,88,29.94,10.0,NE,6.9,-,N/A,,Mostly Cloudy,40,2013-10-09 07:42:00
3:53 AM,73.9,70.0,87,29.94,10.0,NE,6.9,-,N/A,,Mostly Cloudy,40,2013-10-09 07:53:00
4:53 AM,75.0,70.0,84,29.94,10.0,NE,5.8,-,N/A,,Overcast,40,2013-10-09 08:53:00
5:53 AM,73.9,69.1,85,29.95,10.0,NNE,5.8,-,N/A,,Overcast,30,2013-10-09 09:53:00
6:53 AM,73.9,69.1,85,29.97,10.0,NNE,4.6,-,N/A,,Overcast,20,2013-10-09 10:53:00
7:53 AM,73.9,69.1,85,29.98,10.0,North,6.9,-,N/A,,Overcast,10,2013-10-09 11:53:00
8:53 AM,73.9,68.0,82,30.01,10.0,NNE,6.9,-,N/A,,Overcast,30,2013-10-09 12:53:00
9:53 AM,75.0,68.0,79,30.02,10.0,NNE,8.1,-,N/A,,Overcast,20,2013-10-09 13:53:00
10:53 AM,75.0,68.0,79,30.03,10.0,NNE,9.2,-,N/A,,Overcast,30,2013-10-09 14:53:00
11:53 AM,75.9,68.0,76,30.03,10.0,NE,8.1,-,N/A,,Overcast,50,2013-10-09 15:53:00
12:53 PM,75.9,68.0,76,30.02,10.0,ENE,6.9,-,N/A,,Overcast,60,2013-10-09 16:53:00
1:53 PM,77.0,68.0,74,30.00,10.0,NNE,9.2,-,N/A,,Overcast,20,2013-10-09 17:53:00
2:53 PM,77.0,68.0,74,29.99,10.0,Variable,4.6,-,N/A,,Overcast,0,2013-10-09 18:53:00
3:53 PM,79.0,68.0,69,29.98,10.0,NE,5.8,-,N/A,,Overcast,50,2013-10-09 19:53:00
4:53 PM,79.0,68.0,69,29.98,10.0,NNE,5.8,-,N/A,,Mostly Cloudy,20,2013-10-09 20:53:00
5:53 PM,78.1,68.0,71,29.98,10.0,NNE,5.8,-,N/A,,Overcast,20,2013-10-09 21:53:00
6:04 PM,78.8,68.0,69,29.98,10.0,North,6.9,-,N/A,,Overcast,360,2013-10-09 22:04:00
6:53 PM,77.0,66.9,71,29.98,10.0,North,5.8,-,N/A,,Partly Cloudy,350,2013-10-09 22:53:00
7:53 PM,75.0,66.9,76,29.98,10.0,North,3.5,-,N/A,,Clear,350,2013-10-09 23:53:00
8:53 PM,73.9,66.9,79,29.99,10.0,NNE,4.6,-,N/A,,Clear,20,2013-10-10 00:53:00
9:53 PM,73.9,66.9,79,30.01,10.0,NE,8.1,-,N/A,,Clear,50,2013-10-10 01:53:00
10:53 PM,72.0,66.0,81,30.03,10.0,ENE,8.1,-,N/A,,Clear,60,2013-10-10 02:53:00
11:53 PM,70.0,66.0,87,30.03,10.0,NNE,4.6,-,N/A,,Clear,30,2013-10-10 03:53:00